Meeker, CO

11:56 AM MDT on June 23, 2017 (GMT -0600)
Meeker

Weather History for KEEO - March, 2014

Change the Weather History Date:

Wednesday, March 19, 2014

  Actual Average Record
Temperature  
Mean Temperature 33 °F 36 °F  
Max Temperature 47 °F 49 °F 72 °F (2004)
Min Temperature 18 °F 23 °F 10 °F (2002)
Degree Days  
Heating Degree Days 32 29  
Month to date heating degree days 516 604  
Since 1 July heating degree days 6436 6409  
Cooling Degree Days 0 0  
Month to date cooling degree days 0 0  
Year to date cooling degree days 0 0  
Moisture  
Dew Point 14 °F    
Average Humidity 53    
Maximum Humidity 84    
Minimum Humidity 22    
Precipitation  
Precipitation T in 0.04 in 0.07 in (2012)
Month to date precipitation 0.59 0.66  
Year to date precipitation 2.95 2.55  
Sea Level Pressure  
Sea Level Pressure 30.20 in    
Wind  
Wind Speed 6 mph (SSW)    
Max Wind Speed 20 mph    
Max Gust Speed 27 mph    
Visibility 10 miles    
Events      
T = Trace of Precipitation, MM = Missing Value Source: NWS Daily Summary

Daily Weather History Graph

Daily Weather History Graph

Search for Another Location

Airport or City:

Trip Planner

Search our weather history database for the weather conditions in past years. The results will help you decide how hot, cold, wet, or windy it might be!

Date:

Astronomy

Mar. 19, 2014 Rise Set
Actual Time 7:16 AM MDT 7:22 PM MDT
Civil Twilight 6:49 AM MDT 7:49 PM MDT
Nautical Twilight 6:17 AM MDT 8:21 PM MDT
Astronomical Twilight 5:45 AM MDT 8:53 PM MDT
Moon 10:44 PM MDT (3/19) 8:44 AM MDT (3/19)
Length of Visible Light 13h 00m
Length of Day
12h 06m
Waning Gibbous, 91% of the Moon is Illuminated
Mar 19
Waning Gibbous
Mar 23
Last Quarter
Mar 30
New
Apr 7
First Quarter
Apr 15
Full

Hourly Weather History & Observations

Time (MDT) Temp. Windchill Dew Point Humidity Pressure Visibility Wind Dir Wind Speed Gust Speed Precip Events Conditions
12:53 AM 24.1 °F - 17.1 °F 75% 30.16 in 10.0 mi Calm Calm - N/A   Mostly Cloudy
1:53 AM 24.1 °F 19.7 °F 17.1 °F 75% 30.17 in 10.0 mi East 3.5 mph - N/A   Overcast
2:53 AM 25.0 °F - 18.0 °F 75% 30.18 in 10.0 mi Calm Calm - N/A   Overcast
3:53 AM 24.1 °F 16.0 °F 17.1 °F 75% 30.18 in 10.0 mi ESE 6.9 mph - 0.00 in   Overcast
4:53 AM 21.9 °F 15.7 °F 17.1 °F 82% 30.21 in 10.0 mi East 4.6 mph - N/A   Clear
5:53 AM 19.9 °F 14.9 °F 16.0 °F 85% 30.25 in 10.0 mi ENE 3.5 mph - N/A   Clear
6:53 AM 19.9 °F 14.9 °F 14.0 °F 78% 30.27 in 10.0 mi Variable 3.5 mph - N/A   Clear
7:53 AM 19.9 °F 10.1 °F 15.1 °F 81% 30.30 in 10.0 mi NE 8.1 mph - N/A   Clear
8:53 AM 23.0 °F 18.4 °F 16.0 °F 74% 30.30 in 10.0 mi ESE 3.5 mph - N/A   Clear
9:53 AM 28.0 °F 24.2 °F 18.0 °F 66% 30.29 in 10.0 mi North 3.5 mph - N/A   Clear
10:53 AM 32.0 °F - 12.9 °F 45% 30.28 in 10.0 mi Calm Calm - N/A   Clear
11:53 AM 36.0 °F - 12.9 °F 39% 30.25 in 10.0 mi Calm Calm - N/A   Clear
12:53 PM 39.0 °F 33.4 °F 15.1 °F 38% 30.22 in 10.0 mi West 8.1 mph - N/A   Clear
1:53 PM 43.0 °F 36.8 °F 14.0 °F 31% 30.15 in 10.0 mi SSW 11.5 mph - N/A   Clear
2:53 PM 44.1 °F 39.0 °F 10.9 °F 26% 30.12 in 10.0 mi SW 9.2 mph 20.7 mph N/A   Clear
3:53 PM 46.0 °F 41.0 °F 12.0 °F 25% 30.12 in 10.0 mi West 10.4 mph 23.0 mph N/A   Clear
4:53 PM 46.0 °F 38.8 °F 12.0 °F 25% 30.13 in 10.0 mi SW 18.4 mph 23.0 mph N/A   Unknown
5:11 PM 46.0 °F 38.8 °F 10.0 °F 23% 30.12 in 10.0 mi West 18.4 mph - N/A   Clear
5:53 PM 46.0 °F 41.0 °F 10.9 °F 24% 30.15 in 10.0 mi West 10.4 mph - N/A   Clear
6:53 PM 44.1 °F 37.4 °F 9.0 °F 24% 30.17 in 10.0 mi SW 13.8 mph - N/A   Clear
7:53 PM 37.0 °F 31.6 °F 10.9 °F 34% 30.19 in 10.0 mi SSW 6.9 mph - N/A   Clear
8:53 PM 32.0 °F 26.4 °F 15.1 °F 50% 30.21 in 10.0 mi NE 5.8 mph - N/A   Clear
9:53 PM 37.0 °F - 12.0 °F 36% 30.17 in 10.0 mi Calm Calm - N/A   Clear
10:53 PM 34.0 °F 31.0 °F 14.0 °F 44% 30.18 in 10.0 mi Variable 3.5 mph - N/A   Clear
11:53 PM 37.0 °F 32.4 °F 12.9 °F 37% 30.16 in 10.0 mi SW 5.8 mph - N/A   Clear